Weather in Uakit

Russia / Republic of Buryatia     55°28′57″N   113°38′06″E
temp.,
°C
wind,
m/s
gust,
m/s
humid.,
%
clouds,
%
prec.,
mm/h
press.,
hPa
HPBL,
m
18 april, sun
sun1823:00−6nne2294100 0.0 100411
02:00−5nnw3389100 0.2 100440
05:00−6nnw229293 0.0 100528
08:00−3nw4680100 0.1 1007558
11:00−5nw7961100 0.1 10121435
14:00−7nw811459 0.1 10161761
17:00−8nw7104832 0.0 10201830
20:00−13nw33721 0.0 102527
19 april, mon
mon1923:00−15nnw32812 0.0 102824
02:00−16n228277 0.0 102921
05:00−16nne1182100 0.0 102911
08:00−14ese1168100 0.0 1028178
11:00−11s22571 0.0 1025506
14:00−8sse11541 0.0 1022582
17:00−6se115784 0.0 1020413
20:00−8ne2272100 0.0 101816
20 april, tue
tue2023:00−8nne2273100 0.3 101535
02:00−10nne227689 0.3 101310
05:00−9sse017467 0.0 101210
08:00−6e0060100 0.0 1011105
11:00−4sse1057100 0.0 1010295
14:00−1se0060100 0.0 1008308
17:00+1nnw1264100 0.0 1008280
20:00−2nnw118197 0.0 100912
21 april, wed
wed2123:00−4nnw2286100 0.0 101140
02:00−6nnw338697 0.0 101359
05:00−8nnw3483100 0.0 1016107
08:00−7nnw3469100 0.0 1017335
11:00−4nnw2254100 0.0 1017757
14:00−3nnw3347100 0.0 10171053
17:00−3nnw4448100 0.0 1018880
20:00−5n3559100 0.0 1021430
22 april, thu
thu2223:00−7n45682 0.0 1024171
02:00−9nnw34761 0.0 102798
05:00−10nnw33805 0.0 102965
08:00−7nnw34580 0.0 1030465
11:00−4nnw34414 0.0 10301281
14:00−3nnw33374 0.0 10301481
17:00−2n44375 0.0 10311404
20:00−4n34485 0.0 1035147